Location: A�t Mechkouk
(31.2084°N, 8.8528°W)
Time: 04:36:15
(UTC+00:00)

Daily predictions for brighter satellites

Satellite Brightness Start Highest point End
(mag) Time Altitude Azimuth Time Altitude Azimuth Time Altitude Azimuth
Cosmos 2082 Rocket 4.0 04:15:38 27° ESE 04:15:38 27° ESE 04:18:25 10° SE
Chandra Rocket (1) 4.3 04:57:08 15° SE 04:57:08 15° SE 04:57:39 10° SE
USA 238 DEB 4.4 05:00:10 36° N 05:00:10 36° N 05:04:15 10° NNE
USA 238 4.4 05:00:13 36° N 05:00:13 36° N 05:04:22 10° NNE
Cosmos 2034 Rocket 3.9 05:09:02 35° N 05:11:56 85° W 05:18:15 10° S
Cosmos 1814 Rocket 4.1 05:12:29 50° N 05:13:43 71° ENE 05:18:50 10° SSE
Cosmos 2369 Rocket 2.1 05:10:10 10° SSW 05:15:44 82° ESE 05:21:20 10° NNE
Hubble Space Telescope 1.8 05:18:34 38° SSE 05:18:34 38° SSE 05:21:48 10° ESE
Cosmos 1782 4.2 05:15:56 21° NNE 05:17:59 37° E 05:21:38 10° SSE
Meteor 1-31 Rocket 4.4 05:15:13 10° NNE 05:18:48 34° E 05:22:22 10° SSE
Centaur D-1AR AC-40 4.0 05:15:07 31° SW 05:19:03 54° S 06:24:47 10° ESE
SJ-12 4.3 05:20:11 10° NNE 05:24:17 64° E 05:28:22 10° S
H-2A R/B 2.7 05:28:27 10° NNE 05:32:11 80° E 05:35:57 10° S
Tsikada Rocket 4.0 05:26:56 10° SSW 05:32:57 55° W 05:39:04 10° N
Cosmos 1867 3.8 05:30:58 26° NNW 05:34:04 67° ENE 05:39:26 10° SE
Cosmos 1634 Rocket 4.4 05:28:01 10° N 05:34:14 65° E 05:40:22 10° SSE
OAO 3 Rocket 3.2 05:35:01 55° W 05:36:05 80° SSW 05:41:01 10° ESE
MOS 1-B Rocket 4.2 05:29:44 10° SSE 05:36:29 75° ENE 05:42:23 10° N
Cosmos 2208 Rocket 4.1 05:32:53 20° NNW 05:36:43 81° ENE 05:42:03 10° SSE
Cosmos 1656 Rocket 3.5 05:34:02 10° SSW 05:39:26 88° WNW 05:44:52 10° NNE
Cosmos 1943 Rocket 4.0 05:48:15 14° NNW 05:48:15 14° NNW 05:49:26 10° N
CZ-2C R/B 3.2 05:40:12 10° SSE 05:45:39 62° ENE 05:51:01 10° N
YAOGAN 6 3.2 05:48:15 38° SW 05:48:15 38° SW 05:50:45 10° SSW
Cosmos 1486 Rocket 4.0 05:42:23 10° SSW 05:47:38 62° WNW 05:52:52 10° N
SAR-Lupe-3 4.4 05:45:44 10° N 05:49:20 75° WNW 05:52:54 10° SSW
SL-19 R/B 4.2 05:46:41 10° SSE 05:52:23 82° WSW 05:57:57 10° NNW
Cosmos 1933 3.7 05:52:47 39° W 05:52:51 39° W 05:56:34 10° SSW
Cosmos 2082 Rocket 3.5 05:57:34 20° WSW 05:57:34 20° WSW 06:00:51 10° SSW
Iridium 2 3.6 05:53:46 10° SSW 05:57:30 63° W 06:01:16 10° N
APEX 3.0 05:59:53 43° W 06:00:22 47° WSW 06:03:49 10° S
Cosmos 1241 Rocket 4.4 05:55:11 14° NNW 06:00:41 87° WSW 06:06:54 10° SSE
SJ 16-02 3.5 05:57:54 10° SSE 06:01:39 28° E 06:05:25 10° NE
CENTAUR R/B 4.1 06:03:22 14° NW 06:03:22 14° NW 06:06:27 10° N
CZ-3 R/B 3.6 05:53:15 10° SW 06:07:50 35° S 06:13:07 10° ESE
SKYMED 2 3.5 06:04:06 10° S 06:08:25 75° W 06:12:46 10° NNW
NOAA 11 4.2 06:07:58 10° NNE 06:13:28 86° E 06:18:57 10° SSW
Landsat 5 3.6 06:12:51 10° S 06:17:20 81° WSW 06:21:52 10° NNW
DELTA 2 R/B (1) 4.0 06:13:49 19° WNW 06:17:24 44° NNW 06:22:42 10° ENE
Cosmos 2098 Rocket 3.4 06:15:06 10° SW 06:18:12 30° WNW 06:21:57 10° NNW
Envisat 3.6 06:15:01 10° N 06:19:29 32° WNW 06:23:56 10° SW
Meteor 2-6 Rocket 4.1 06:17:43 10° N 06:23:08 88° W 06:28:32 10° S
Cosmos 1939 Rocket 4.0 06:21:06 10° NNE 06:24:51 46° E 06:28:34 10° S
Okean 3 Rocket 4.0 06:22:27 10° SSW 06:26:42 40° W 06:30:59 10° N
Genesis I 3.3 06:24:16 11° NW 06:28:11 66° WSW 06:32:09 10° SSE
H-2A R/B 3.8 06:24:54 10° SE 06:28:39 33° ENE 06:32:30 10° N
ATLAS 3B R/B 3.0 06:22:45 10° SSW 06:29:07 68° ESE 06:35:44 10° NE
Cosmos 921 Rocket 3.5 06:28:17 10° NNW 06:32:28 42° W 06:36:41 10° S
Cosmos 1174 3.1 06:30:15 10° SSW 06:33:20 80° ESE 06:36:18 10° NNE
ATLAS 5 CENTAUR R/B 1.1 06:29:55 10° SSW 06:33:37 86° WNW 06:37:33 10° NNE
FALCON 9 R/B 3.8 06:14:07 14° W 06:34:41 81° N 06:40:42 10° E
Cosmos 1812 3.5 06:33:24 10° NNW 06:36:47 30° W 06:40:09 10° SSW
Meteor 1-10 Rocket 4.2 06:33:52 10° N 06:39:26 89° W 06:44:58 10° S
Cosmos 1354 Rocket 4.4 06:35:15 10° SW 06:40:11 41° WNW 06:45:10 10° N
ADEOS 4.0 06:38:48 10° N 06:43:38 39° WNW 06:48:26 10° SW
SL-4 R/B 4.5 06:41:09 10° S 06:43:55 23° SE 06:46:49 10° ENE
Cosmos 1151 Rocket 3.8 06:41:40 10° NNW 06:45:32 31° W 06:49:24 10° SSW
Gbstr 26 Del rocket 3.9 06:43:43 10° WNW 06:47:22 33° SW 06:51:34 10° SSE
Meteor PRIRODA 4.2 06:47:24 10° N 06:50:44 36° WNW 06:54:05 10° SW
USA 215 3.6 06:44:58 10° SE 06:51:27 70° NE 06:57:56 10° NW
CZ-2C R/B 3.2 06:47:13 10° N 06:51:58 50° WNW 06:56:56 10° SSW
BREEZE-M DEB (TANK) 4.1 06:51:08 10° SW 06:54:19 60° SE 07:01:58 10° NE
IRAS Rocket 4.2 06:49:25 10° S 06:54:55 72° WSW 07:00:25 10° NNW
